When you browse on this site, cookies collect data to enhance your experience and personalize the content and advertising you see.
Visit our Privacy Policy to learn more. By continuing to use the site, you agree to this use of cookies and data.
  • In Österreich
  • Länderverzeichnis
  • Für 7 Tage
  • Wassertemperatur
  • Wetterkarte
  • News
  • Widgets
  • user-avatar
    Anmelden

    Stündliche Wetter Borovaya

    Heute, 31 Mai, Sonntag

    Zeit Temperatur Niederschläge Wind Luftdruck Luftfeuchtigkeit
    00:00 +12°C° 0 mm 2 m/S 740 mmHg 95%
    01:00 +12°C° 0 mm 2 m/S 741 mmHg 96%
    02:00 +10°C° 0 mm 2 m/S 741 mmHg 96%
    03:00 +12°C° 0 mm 2 m/S 741 mmHg 96%
    04:00 +12°C° 0 mm 2 m/S 741 mmHg 96%
    05:00 +12°C° 0 mm 2 m/S 741 mmHg 96%
    06:00 +13°C° 0 mm 2 m/S 742 mmHg 93%
    07:00 +14°C° 0 mm 2 m/S 742 mmHg 90%
    08:00 +14°C° 0 mm 2 m/S 742 mmHg 88%
    09:00 +14°C° 0 mm 3 m/S 743 mmHg 85%
    10:00 +14°C° 0 mm 3 m/S 743 mmHg 82%
    11:00 +16°C° 0 mm 3 m/S 744 mmHg 79%
    12:00 +17°C° 0 mm 3 m/S 744 mmHg 74%
    13:00 +17°C° 0 mm 2 m/S 744 mmHg 70%
    14:00 +19°C° 0 mm 1 m/S 744 mmHg 66%
    15:00 +18°C° 0.2 mm 2 m/S 744 mmHg 69%
    16:00 +18°C° 0.2 mm 3 m/S 745 mmHg 72%
    17:00 +17°C° 0.2 mm 4 m/S 745 mmHg 76%
    18:00 +15°C° 0.4 mm 4 m/S 745 mmHg 81%
    19:00 +13°C° 0.4 mm 5 m/S 745 mmHg 86%
    20:00 +10°C° 0.4 mm 6 m/S 746 mmHg 92%
    21:00 +10°C° 0 mm 6 m/S 746 mmHg 91%
    22:00 +9°C° 0 mm 5 m/S 746 mmHg 91%
    23:00 +9°C° 0 mm 5 m/S 746 mmHg 90%

    Morgen, 1 Juni, Montag

    Zeit Temperatur Niederschläge Wind Luftdruck Luftfeuchtigkeit
    00:00 +8°C° 0 mm 5 m/S 746 mmHg 91%
    01:00 +8°C° 0 mm 5 m/S 746 mmHg 91%
    02:00 +7°C° 0 mm 5 m/S 747 mmHg 92%
    03:00 +7°C° 0 mm 5 m/S 747 mmHg 90%
    04:00 +5°C° 0 mm 6 m/S 746 mmHg 89%
    05:00 +5°C° 0 mm 6 m/S 746 mmHg 88%
    06:00 +7°C° 0 mm 6 m/S 747 mmHg 84%
    07:00 +8°C° 0 mm 6 m/S 747 mmHg 80%
    08:00 +9°C° 0 mm 7 m/S 747 mmHg 76%
    09:00 +10°C° 0.1 mm 7 m/S 748 mmHg 72%
    10:00 +10°C° 0.1 mm 7 m/S 748 mmHg 69%
    11:00 +11°C° 0.1 mm 7 m/S 748 mmHg 65%
    12:00 +11°C° 0.2 mm 7 m/S 747 mmHg 64%
    13:00 +12°C° 0.2 mm 7 m/S 747 mmHg 63%
    14:00 +13°C° 0.2 mm 6 m/S 747 mmHg 62%
    15:00 +11°C° 0.3 mm 6 m/S 747 mmHg 66%
    16:00 +11°C° 0.3 mm 6 m/S 747 mmHg 69%
    17:00 +11°C° 0.3 mm 6 m/S 747 mmHg 72%
    18:00 +9°C° 0.2 mm 6 m/S 747 mmHg 78%
    19:00 +8°C° 0.2 mm 5 m/S 747 mmHg 83%
    20:00 +7°C° 0.2 mm 5 m/S 746 mmHg 89%
    21:00 +7°C° 0.9 mm 5 m/S 746 mmHg 90%
    22:00 +7°C° 0.9 mm 6 m/S 746 mmHg 92%
    23:00 +7°C° 0.9 mm 6 m/S 745 mmHg 93%

    übermorgen, 2 Juni, Dienstag

    Zeit Temperatur Niederschläge Wind Luftdruck Luftfeuchtigkeit
    00:00 +7°C° 0.4 mm 6 m/S 745 mmHg 93%
    01:00 +7°C° 0.4 mm 6 m/S 744 mmHg 93%
    02:00 +7°C° 0.4 mm 6 m/S 743 mmHg 93%
    03:00 +7°C° 0.4 mm 6 m/S 743 mmHg 93%
    04:00 +7°C° 0.4 mm 6 m/S 742 mmHg 93%
    05:00 +7°C° 0.4 mm 6 m/S 742 mmHg 94%
    06:00 +7°C° 0.9 mm 6 m/S 741 mmHg 94%
    07:00 +7°C° 0.9 mm 6 m/S 741 mmHg 95%
    08:00 +8°C° 0.9 mm 5 m/S 741 mmHg 95%
    09:00 +8°C° 0.6 mm 5 m/S 740 mmHg 95%
    10:00 +8°C° 0.6 mm 5 m/S 740 mmHg 94%
    11:00 +10°C° 0.6 mm 4 m/S 740 mmHg 94%
    12:00 +11°C° 0.1 mm 4 m/S 740 mmHg 91%
    13:00 +12°C° 0.1 mm 3 m/S 740 mmHg 88%
    14:00 +14°C° 0.1 mm 2 m/S 740 mmHg 85%
    15:00 +14°C° 0.3 mm 3 m/S 739 mmHg 82%
    16:00 +14°C° 0.3 mm 3 m/S 739 mmHg 79%
    17:00 +15°C° 0.3 mm 4 m/S 739 mmHg 76%
    18:00 +13°C° 0 mm 4 m/S 739 mmHg 80%
    19:00 +12°C° 0 mm 3 m/S 739 mmHg 85%
    20:00 +10°C° 0 mm 3 m/S 740 mmHg 89%
    21:00 +9°C° 0 mm 3 m/S 740 mmHg 91%
    22:00 +8°C° 0 mm 3 m/S 740 mmHg 93%
    23:00 +7°C° 0 mm 3 m/S 740 mmHg 95%

    3 Juni, Mittwoch

    Zeit Temperatur Niederschläge Wind Luftdruck Luftfeuchtigkeit
    00:00 +5°C° 0 mm 3 m/S 740 mmHg 95%
    01:00 +5°C° 0 mm 3 m/S 740 mmHg 96%
    02:00 +5°C° 0 mm 3 m/S 740 mmHg 96%
    03:00 +5°C° 0 mm 3 m/S 740 mmHg 96%
    04:00 +5°C° 0 mm 3 m/S 740 mmHg 96%
    05:00 +5°C° 0 mm 3 m/S 741 mmHg 96%
    06:00 +6°C° 0 mm 4 m/S 741 mmHg 91%
    07:00 +8°C° 0 mm 4 m/S 741 mmHg 87%
    08:00 +10°C° 0 mm 5 m/S 741 mmHg 82%
    09:00 +12°C° 0.2 mm 5 m/S 741 mmHg 79%
    10:00 +11°C° 0.2 mm 6 m/S 741 mmHg 76%
    11:00 +13°C° 0.2 mm 6 m/S 742 mmHg 73%
    12:00 +14°C° 0.5 mm 6 m/S 741 mmHg 72%
    13:00 +15°C° 0.5 mm 6 m/S 741 mmHg 71%
    14:00 +15°C° 0.5 mm 6 m/S 741 mmHg 70%
    15:00 +15°C° 0.4 mm 6 m/S 741 mmHg 73%
    16:00 +15°C° 0.4 mm 6 m/S 741 mmHg 76%
    17:00 +14°C° 0.4 mm 5 m/S 741 mmHg 78%
    18:00 +13°C° 0.4 mm 5 m/S 741 mmHg 82%
    19:00 +12°C° 0.4 mm 5 m/S 741 mmHg 86%
    20:00 +11°C° 0.4 mm 4 m/S 741 mmHg 91%
    21:00 +10°C° 0 mm 4 m/S 741 mmHg 92%
    22:00 +10°C° 0 mm 4 m/S 742 mmHg 93%
    23:00 +8°C° 0 mm 4 m/S 742 mmHg 95%

    4 Juni, Donnerstag

    Zeit Temperatur Niederschläge Wind Luftdruck Luftfeuchtigkeit
    00:00 +8°C° 0 mm 4 m/S 742 mmHg 95%
    01:00 +8°C° 0 mm 4 m/S 742 mmHg 96%
    02:00 +7°C° 0 mm 4 m/S 742 mmHg 96%
    03:00 +7°C° 0 mm 4 m/S 742 mmHg 96%
    04:00 +8°C° 0 mm 4 m/S 742 mmHg 96%
    05:00 +8°C° 0 mm 4 m/S 742 mmHg 95%
    06:00 +10°C° 0.1 mm 4 m/S 743 mmHg 94%
    07:00 +10°C° 0.1 mm 4 m/S 743 mmHg 93%
    08:00 +11°C° 0.1 mm 4 m/S 743 mmHg 92%
    09:00 +12°C° 0.3 mm 4 m/S 743 mmHg 88%
    10:00 +13°C° 0.3 mm 4 m/S 743 mmHg 84%
    11:00 +14°C° 0.3 mm 4 m/S 743 mmHg 81%
    12:00 +16°C° 0.9 mm 3 m/S 743 mmHg 79%
    13:00 +16°C° 0.9 mm 3 m/S 742 mmHg 76%
    14:00 +17°C° 0.9 mm 3 m/S 742 mmHg 74%
    15:00 +17°C° 0.5 mm 3 m/S 742 mmHg 76%
    16:00 +16°C° 0.5 mm 3 m/S 742 mmHg 77%
    17:00 +16°C° 0.5 mm 3 m/S 742 mmHg 78%
    18:00 +14°C° 0.2 mm 3 m/S 742 mmHg 83%
    19:00 +13°C° 0.2 mm 2 m/S 741 mmHg 87%
    20:00 +12°C° 0.2 mm 2 m/S 741 mmHg 91%
    21:00 +10°C° 0 mm 2 m/S 741 mmHg 92%
    22:00 +10°C° 0 mm 2 m/S 741 mmHg 93%
    23:00 +9°C° 0 mm 2 m/S 741 mmHg 94%

    5 Juni, Freitag

    Zeit Temperatur Niederschläge Wind Luftdruck Luftfeuchtigkeit
    00:00 +9°C° 0 mm 2 m/S 741 mmHg 95%
    01:00 +8°C° 0 mm 2 m/S 741 mmHg 96%
    02:00 +8°C° 0 mm 2 m/S 741 mmHg 96%
    03:00 +8°C° 0 mm 2 m/S 741 mmHg 96%
    04:00 +8°C° 0 mm 2 m/S 741 mmHg 97%
    05:00 +8°C° 0 mm 2 m/S 741 mmHg 97%
    06:00 +9°C° 0 mm 2 m/S 741 mmHg 93%
    07:00 +12°C° 0 mm 2 m/S 741 mmHg 89%
    08:00 +13°C° 0 mm 3 m/S 741 mmHg 86%
    09:00 +14°C° 0.3 mm 3 m/S 742 mmHg 83%
    10:00 +16°C° 0.3 mm 3 m/S 742 mmHg 80%
    11:00 +16°C° 0.3 mm 3 m/S 742 mmHg 77%
    12:00 +17°C° 0.5 mm 3 m/S 741 mmHg 75%
    13:00 +18°C° 0.5 mm 3 m/S 741 mmHg 73%
    14:00 +19°C° 0.5 mm 4 m/S 741 mmHg 70%
    15:00 +19°C° 0.2 mm 3 m/S 741 mmHg 70%
    16:00 +19°C° 0.2 mm 3 m/S 741 mmHg 69%
    17:00 +19°C° 0.2 mm 3 m/S 741 mmHg 69%
    18:00 +17°C° 0.1 mm 2 m/S 741 mmHg 75%
    19:00 +16°C° 0.1 mm 2 m/S 741 mmHg 80%
    20:00 +15°C° 0.1 mm 2 m/S 741 mmHg 86%
    21:00 +14°C° 0 mm 2 m/S 742 mmHg 88%
    22:00 +13°C° 0 mm 2 m/S 742 mmHg 90%
    23:00 +13°C° 0 mm 2 m/S 742 mmHg 91%
    Mehr zeigen